BEIDOU-3 IGSO-2

Last updated on Aug. 15, 2020, 5:34 a.m. UTC

1 44337U 19035A   20227.79275876 -.00000118  00000-0  00000+0 0  9993
2 44337  55.0747 177.7730 0014225 190.1160 349.1674  1.00272755  4316
UTC
Height (km)
Latitude
Longitude
Inclination
Orbital Period
UTC large
Height (km)
Speed (km/s)
/
Latitude / Longitude
Inclination (degrees)
Orbital Period (minutes)
Azimuth
Elevation
Range (km)
Doppler Factor
iOS Compass Heading
iOS Angle

Next 30 passes for location: Hong Kong

Rise time Rise Azimuth (degrees) Set time Set Azimuth (degrees) Duration Max altitude (degrees)

No matching passes for this satellites